Location: Carbonear
(47.7333°N, 53.2500°W)
Time: 04:52:15
(UTC+00:00)

AO-27 - Pass Details

Date: 09 December 2022
Orbit: 784 x 798 km, 98.9° (Epoch: 28 January)

Event Time Altitude Azimuth Distance (km) Brightness Sun altitude
Rises 10:28:56 0° 31° (NNE) 3,313 10.9 -6.7°
Reaches altitude 10° 10:32:26 10° 55° (NE) 2,375 10.5 -6.2°
Maximum altitude 10:35:15 15° 88° (E) 2,066 10.9 -5.8°
Drops below altitude 10° 10:38:03 10° 121° (ESE) 2,361 12.1 -5.4°
Sets 10:41:29 0° 145° (SE) 3,281 12.2 -4.9°
